BEIDOU-3 M9 (C29)

Last updated on Tue Aug 25 2026 00:03:25 GMT+0000 (Coordinated Universal Time)

1 43245U 18029A 26236.14257491 -.00000032 00000+0 00000+0 0 9994 2 43245 54.1290 297.5674 0001581 220.7942 139.2712 1.86228723 57165
UTC large
Height (km)
Speed (km/s)
/
Latitude / Longitude
Inclination (degrees)
Orbital Period (minutes)
Azimuth
Elevation
Range (km)
Doppler Factor

Next 0 passes for location: London (51.5072 / 0.1276)

No passes found over London.
BEIDOU-3 M9 (C29)